1513760400.04,13035,5.94,73520.0,-5.97,-13.61,-13.23,0,*59
1513760401.28,13036,5.88,73518.3,-5.97,-13.61,-13.19,0,*53
1513760402.49,13037,5.88,73516.3,-5.97,-13.47,-13.19,0,*56
1513760403.72,13038,5.88,73516.3,-5.95,-13.87,-13.47,0,*5C
1513760404.96,13039,5.88,73518.5,-5.95,-13.93,-13.33,0,*5B
1513760406.17,13040,5.88,73518.5,-5.95,-13.51,-13.07,0,*5C
1513760407.39,13041,5.88,73518.0,-5.95,-13.51,-12.97,0,*55
1513760408.62,13042,5.88,73514.5,-5.95,-13.51,-13.19,0,*51
1513760409.86,13043,5.88,73518.5,-5.95,-13.73,-13.33,0,*58
1513760411.08,13044,5.88,73514.8,-5.95,-13.51,-13.11,0,*5F
1513760412.32,13045,5.88,73518.8,-5.95,-13.73,-13.37,0,*5A
1513760413.55,13046,5.94,73518.0,-5.95,-13.33,-12.97,0,*56
1513760414.77,13047,5.88,73514.5,-5.95,-13.51,-13.07,0,*5B
1513760416.03,13048,5.88,73514.8,-5.95,-13.79,-13.37,0,*5D
1513760417.27,13049,5.88,73514.3,-5.95,-13.73,-13.33,0,*52
1513760418.51,13050,5.88,73512.0,-5.95,-13.33,-12.89,0,*5E
1513760419.75,13051,5.88,73516.3,-5.95,-13.61,-13.23,0,*59
1513760421.01,13052,5.88,73514.8,-5.95,-13.79,-13.37,0,*56
1513760422.21,13053,5.88,73518.0,-5.97,-13.93,-13.51,0,*51
1513760423.46,13054,5.88,73514.8,-5.95,-13.61,-13.19,0,*55
1513760424.69,13055,5.88,73512.0,-5.95,-13.65,-13.37,0,*5C
1513760425.93,13056,5.88,73516.3,-5.97,-13.37,-12.97,0,*51
1513760427.14,13057,5.94,73518.5,-5.95,-13.47,-12.97,0,*55
1513760428.34,13058,5.94,73518.0,-5.97,-13.65,-13.23,0,*56
1513760429.57,13059,5.88,73518.8,-5.97,-13.73,-13.33,0,*51
1513760430.82,13060,5.88,73518.0,-5.97,-13.79,-13.37,0,*55
1513760432.04,13061,5.94,73518.5,-5.95,-13.65,-13.23,0,*5E
1513760433.23,13062,5.88,73516.3,-5.97,-13.47,-13.07,0,*59
1513760434.46,13063,5.88,73516.8,-5.97,-13.19,-12.65,0,*56
1513760435.69,13064,5.94,73516.8,-5.97,-13.19,-12.65,0,*51
1513760436.91,13065,5.88,73514.3,-5.97,-13.51,-13.19,0,*56
1513760438.11,13066,5.88,73512.3,-5.97,-13.73,-13.47,0,*5E
1513760439.34,13067,5.88,73514.3,-5.97,-13.61,-13.23,0,*5E
1513760440.57,13068,5.88,73512.3,-5.97,-13.33,-12.97,0,*58
1513760441.8,13069,5.94,73516.0,-5.97,-13.65,-13.33,0,*55
1513760443.01,13070,5.94,73518.0,-5.97,-13.51,-13.11,0,*5A
1513760444.26,13071,5.94,73518.0,-5.99,-13.69,-13.37,0,*5A
1513760445.49,13072,5.88,73516.3,-5.99,-13.51,-13.11,0,*56
1513760446.73,13073,5.94,73518.5,-5.99,-13.51,-13.11,0,*57
1513760447.98,13074,5.88,73514.8,-5.99,-13.79,-13.43,0,*5D
1513760449.23,13075,5.94,73516.8,-5.99,-13.79,-13.51,0,*5F
1513760450.46,13076,5.88,73516.3,-6.01,-13.65,-13.37,0,*53
1513760451.69,13077,5.88,73512.8,-6.01,-13.69,-13.29,0,*51
1513760452.92,13078,5.88,73514.8,-6.01,-13.97,-13.51,0,*50
1513760454.13,13079,5.94,73516.8,-6.01,-13.93,-13.51,0,*55
1513760455.33,13080,5.94,73514.3,-6.01,-13.55,-13.11,0,*5D
1513760456.53,13081,5.88,73514.8,-6.01,-13.65,-13.15,0,*5B
1513760457.79,13082,5.88,73514.5,-6.05,-13.83,-13.29,0,*5B
1513760459.0,13083,5.88,73514.0,-6.05,-13.55,-12.97,0,*55
1513760460.21,13084,5.94,73514.0,-6.05,-13.69,-13.15,0,*56
1513760461.43,13085,5.88,73514.0,-6.01,-13.55,-13.01,0,*59
1513760462.64,13086,5.94,73516.8,-6.05,-13.69,-13.15,0,*54
1513760463.9,13087,5.94,73518.5,-6.07,-13.61,-12.93,0,*50
1513760465.13,13088,5.94,73512.5,-6.05,-13.47,-12.83,0,*58
1513760466.34,13089,5.94,73514.3,-6.05,-13.73,-13.07,0,*53
1513760467.6,13090,5.94,73514.5,-6.07,-13.87,-13.23,0,*54
1513760468.84,13091,5.94,73518.5,-6.07,-14.11,-13.51,0,*58
1513760470.1,13092,5.88,73512.5,-6.07,-13.79,-13.23,0,*57
1513760471.37,13093,5.94,73518.0,-6.07,-13.79,-13.19,0,*5F
1513760472.62,13094,5.88,73510.8,-6.07,-13.93,-13.37,0,*50
1513760473.89,13095,5.88,73512.3,-6.07,-14.11,-13.61,0,*5F
1513760475.15,13096,5.94,73514.0,-6.07,-14.01,-13.47,0,*59
1513760476.4,13097,5.94,73514.5,-6.07,-14.61,-13.87,0,*52
1513760477.63,13098,5.94,73512.8,-6.09,-14.37,-13.79,0,*51
1513760478.87,13099,5.88,73510.5,-6.09,-14.23,-13.61,0,*5C
1513760480.11,13100,5.94,73514.8,-6.09,-14.11,-13.61,0,*5C
1513760481.35,13101,5.88,73512.3,-6.11,-14.15,-13.51,0,*53
1513760482.59,13102,5.94,73518.3,-6.11,-14.29,-13.55,0,*5B
1513760483.83,13103,5.94,73518.3,-6.09,-14.01,-13.19,0,*51
1513760485.07,13104,5.94,73518.8,-6.11,-14.37,-13.55,0,*52
1513760486.34,13105,5.94,73514.3,-6.09,-14.01,-13.33,0,*5F
1513760487.59,13106,5.94,73512.0,-6.11,-14.83,-14.11,0,*58
1513760488.88,13107,5.94,73514.0,-6.11,-14.51,-13.83,0,*5A
1513760490.08,13108,5.94,73512.3,-6.09,-14.29,-13.69,0,*57
1513760491.33,13109,5.94,73512.5,-6.11,-14.15,-13.55,0,*5F
1513760492.58,13110,5.94,73514.5,-6.11,-14.37,-13.79,0,*59
1513760493.84,13111,5.94,73518.0,-6.11,-14.51,-13.93,0,*5C
1513760495.09,13112,5.94,73508.8,-6.11,-14.15,-13.51,0,*51
1513760496.29,13113,5.88,73508.8,-6.09,-14.33,-13.65,0,*5A
1513760497.57,13114,5.88,73514.8,-6.11,-14.43,-13.83,0,*5B
1513760498.83,13115,5.94,73512.3,-6.11,-14.37,-13.83,0,*59
1513760500.06,13116,5.88,73508.5,-6.11,-14.69,-14.23,0,*5C
1513760501.33,13117,5.88,73508.0,-6.11,-15.29,-14.83,0,*52
1513760502.61,13118,5.94,73514.3,-6.11,-15.57,-14.93,0,*55
1513760503.83,13119,5.94,73512.5,-6.13,-15.29,-14.65,0,*56
1513760505.09,13120,5.94,73516.8,-6.13,-15.43,-14.79,0,*5D
1513760506.31,13121,5.88,73514.8,-6.17,-15.01,-14.29,0,*5B
1513760507.52,13122,5.94,73514.0,-6.17,-15.07,-14.29,0,*5E
1513760508.75,13123,5.94,73514.3,-6.19,-15.07,-14.19,0,*52
1513760509.98,13124,5.94,73518.0,-6.17,-15.49,-14.75,0,*5B
1513760511.18,13125,5.94,73516.0,-6.17,-15.11,-14.19,0,*5D
1513760512.48,13126,5.88,73512.8,-6.19,-15.39,-14.47,0,*51
1513760513.68,13127,5.88,73510.3,-6.17,-15.15,-14.19,0,*5B
1513760514.95,13128,5.94,73512.5,-6.19,-15.49,-14.47,0,*58
1513760516.22,13129,5.94,73512.5,-6.19,-16.09,-15.07,0,*5B
1513760517.51,13130,5.94,73514.0,-6.19,-16.27,-15.35,0,*5E
1513760518.74,13131,5.88,73510.8,-6.21,-16.13,-15.11,0,*55
1513760519.97,13132,5.94,73512.3,-6.21,-15.99,-14.93,0,*5C
1513760521.24,13133,5.94,73512.5,-6.21,-16.51,-15.39,0,*5B
1513760522.48,13134,5.88,73512.0,-6.21,-16.69,-15.53,0,*5B
1513760523.74,13135,5.88,73508.8,-6.21,-16.69,-15.39,0,*56
1513760524.96,13136,5.94,73512.8,-6.21,-16.83,-15.49,0,*56
1513760526.18,13137,5.94,73514.3,-6.25,-16.83,-15.53,0,*58
1513760527.4,13138,5.94,73512.3,-6.25,-16.89,-15.53,0,*5D
1513760528.65,13139,5.94,73514.0,-6.25,-16.75,-15.39,0,*53
1513760529.91,13140,5.94,73518.0,-6.29,-16.65,-15.29,0,*51
1513760531.15,13141,5.94,73514.5,-6.25,-16.41,-14.93,0,*5A
1513760532.41,13142,5.94,73516.3,-6.29,-16.51,-15.15,0,*5B
1513760533.66,13143,5.94,73514.3,-6.29,-16.45,-15.01,0,*5A
1513760534.92,13144,5.94,73518.5,-6.29,-17.21,-15.75,0,*5D
1513760536.2,13145,5.94,73518.3,-6.29,-16.65,-15.21,0,*5C
1513760537.44,13146,5.94,73514.0,-6.25,-17.11,-15.63,0,*57
1513760538.66,13147,5.94,73514.5,-6.25,-16.83,-15.25,0,*5E
1513760539.91,13148,5.94,73516.8,-6.29,-16.89,-15.35,0,*56
1513760541.17,13149,5.94,73518.0,-6.29,-17.21,-15.71,0,*54
1513760542.42,13150,5.94,73512.3,-6.29,-16.93,-15.43,0,*55
1513760543.68,13151,5.94,73518.3,-6.29,-16.89,-15.21,0,*5B
1513760544.94,13152,5.94,73514.8,-6.29,-17.03,-15.49,0,*55
1513760546.22,13153,5.94,73512.0,-6.29,-17.11,-15.57,0,*58
1513760547.49,13154,5.94,73518.3,-6.25,-17.03,-15.39,0,*58
1513760548.77,13155,5.94,73514.0,-6.29,-17.21,-15.57,0,*5D
1513760550.02,13156,5.94,73518.8,-6.25,-17.17,-15.53,0,*53
1513760551.3,13157,5.94,73516.0,-6.29,-17.11,-15.43,0,*59
1513760552.57,13158,5.94,73512.0,-6.25,-17.17,-15.39,0,*51
1513760553.84,13159,5.94,73518.5,-6.25,-17.45,-15.57,0,*5F
1513760555.11,13160,5.94,73514.0,-6.25,-17.21,-15.39,0,*5F
1513760556.39,13161,5.94,73516.0,-6.29,-17.11,-15.43,0,*5C
1513760557.67,13162,5.94,73516.3,-6.29,-17.25,-15.57,0,*5D
1513760558.89,13163,5.94,73516.5,-6.25,-17.31,-15.53,0,*51
1513760560.16,13164,5.94,73518.5,-6.25,-17.17,-15.43,0,*53
1513760561.41,13165,5.94,73516.0,-6.25,-17.17,-15.29,0,*5E
1513760562.66,13166,5.94,73516.0,-6.25,-17.03,-15.25,0,*54
1513760563.89,13167,5.94,73518.8,-6.25,-17.03,-15.15,0,*56
1513760565.14,13168,5.94,73518.0,-6.25,-16.83,-14.97,0,*5B
1513760566.38,13169,5.94,73518.5,-6.25,-17.07,-15.25,0,*5F
1513760567.65,13170,5.94,73516.8,-6.29,-17.07,-15.29,0,*57
1513760568.89,13171,5.94,73516.3,-6.25,-17.07,-15.15,0,*55
1513760570.13,13172,5.94,73516.5,-6.25,-17.03,-15.11,0,*56
1513760571.37,13173,5.94,73518.5,-6.25,-17.03,-15.11,0,*57
1513760572.58,13174,5.94,73518.3,-6.25,-16.83,-15.07,0,*5E
1513760573.8,13175,5.94,73518.0,-6.25,-16.89,-15.11,0,*52
1513760575.07,13176,5.94,73518.0,-6.23,-17.07,-15.29,0,*5B
1513760576.33,13177,5.94,73516.5,-6.23,-17.03,-15.15,0,*51
1513760577.6,13178,5.94,73518.5,-6.23,-17.03,-15.25,0,*5D
1513760578.87,13179,5.94,73516.0,-6.23,-16.55,-14.93,0,*52
1513760580.13,13180,5.94,73514.5,-6.23,-16.55,-14.79,0,*50
1513760581.4,13181,5.94,73514.5,-6.23,-16.17,-14.65,0,*5A
1513760582.64,13182,5.94,73518.0,-6.21,-16.13,-14.61,0,*5B
1513760583.87,13183,5.94,73516.8,-6.21,-16.51,-15.07,0,*5D
1513760585.11,13184,5.94,73516.0,-6.21,-16.23,-14.65,0,*5A
1513760586.4,13185,5.94,73518.0,-6.23,-16.17,-14.79,0,*53
1513760587.65,13186,5.94,73516.5,-6.21,-16.23,-14.75,0,*59
1513760588.91,13187,5.94,73516.5,-6.21,-16.27,-14.75,0,*5C
1513760590.15,13188,5.94,73518.0,-6.17,-16.65,-15.15,0,*57
1513760591.39,13189,5.94,73522.5,-6.19,-16.79,-15.11,0,*51
1513760592.66,13190,5.94,73518.5,-6.19,-16.55,-14.79,0,*58
1513760593.89,13191,5.94,73516.5,-6.17,-16.23,-14.61,0,*5F
1513760595.15,13192,5.94,73516.8,-6.17,-16.23,-14.55,0,*5B
1513760596.41,13193,5.94,73516.5,-6.17,-16.09,-14.55,0,*52
1513760597.68,13194,5.94,73516.3,-6.17,-16.09,-14.47,0,*56
1513760598.92,13195,5.94,73516.5,-6.13,-16.03,-14.51,0,*5E
1513760600.15,13196,5.94,73516.5,-6.13,-15.85,-14.37,0,*50
1513760601.41,13197,5.94,73518.3,-6.13,-15.81,-14.51,0,*55
1513760602.68,13198,5.94,73516.5,-6.13,-15.89,-14.51,0,*52
1513760603.94,13199,5.94,73512.0,-6.13,-15.81,-14.51,0,*5B
1513760605.2,13200,5.94,73516.5,-6.13,-16.13,-14.93,0,*5E
1513760606.44,13201,5.94,73514.5,-6.13,-15.85,-14.65,0,*5A
1513760607.67,13202,5.94,73514.5,-6.13,-15.99,-14.83,0,*5C
1513760608.93,13203,5.94,73512.5,-6.13,-15.57,-14.51,0,*50
1513760610.17,13204,5.94,73512.5,-6.13,-16.13,-15.11,0,*51
1513760611.46,13205,5.94,73510.5,-6.11,-15.81,-14.55,0,*5B
1513760612.72,13206,5.94,73516.0,-6.11,-15.43,-14.37,0,*52
1513760613.95,13207,5.94,73524.0,-6.11,-15.29,-14.29,0,*50
1513760615.19,13208,5.94,73514.8,-6.09,-15.81,-14.65,0,*5C
1513760616.48,13209,5.94,73518.3,-6.11,-15.85,-14.83,0,*58
1513760617.71,13210,5.94,73518.0,-6.09,-15.63,-14.47,0,*59
1513760618.97,13211,5.94,73518.8,-6.11,-15.67,-14.51,0,*52
1513760620.21,13212,5.94,73518.5,-6.09,-15.35,-14.23,0,*5A
1513760621.44,13213,5.94,73516.0,-6.09,-15.49,-14.47,0,*52
1513760622.68,13214,5.94,73514.8,-6.07,-15.67,-14.61,0,*53
1513760623.94,13215,5.94,73514.0,-6.07,-15.95,-14.75,0,*5A
1513760625.19,13216,5.94,73516.8,-6.07,-15.67,-14.51,0,*52
1513760626.46,13217,5.94,73512.8,-6.05,-15.89,-14.83,0,*5E
1513760627.72,13218,5.94,73512.8,-6.07,-15.95,-14.79,0,*5B
1513760628.98,13219,5.94,73516.3,-6.07,-15.63,-14.51,0,*59
1513760630.2,13220,5.94,73514.5,-6.05,-15.49,-14.43,0,*5A
1513760631.44,13221,5.94,73512.0,-6.05,-15.95,-14.93,0,*57
1513760632.7,13222,5.94,73516.0,-6.07,-15.49,-14.51,0,*59
1513760633.93,13223,5.94,73514.8,-6.05,-15.15,-14.05,0,*52
1513760635.15,13224,5.94,73512.3,-6.05,-15.21,-14.29,0,*5C
1513760636.38,13225,5.94,73516.8,-6.05,-15.21,-14.29,0,*5D
1513760637.61,13226,5.94,73518.5,-6.05,-15.63,-14.55,0,*53
1513760638.82,13227,5.94,73518.5,-6.01,-15.29,-14.29,0,*53
1513760640.07,13228,5.94,73518.8,-6.01,-15.57,-14.55,0,*5E
1513760641.33,13229,5.94,73520.0,-5.99,-15.89,-14.89,0,*5F
1513760642.52,13230,5.94,73518.0,-6.01,-15.11,-14.11,0,*55
1513760643.72,13231,5.94,73516.5,-6.01,-15.71,-14.69,0,*5D
1513760644.98,13232,5.94,73516.0,-6.01,-15.89,-15.01,0,*56
1513760646.18,13233,5.94,73516.0,-6.01,-15.67,-14.69,0,*58
1513760647.41,13234,5.94,73512.5,-6.01,-15.29,-14.43,0,*5D
1513760648.64,13235,5.94,73514.0,-6.01,-15.39,-14.37,0,*5E
1513760649.87,13236,5.94,73514.8,-6.01,-15.75,-14.83,0,*5A
1513760651.11,13237,5.94,73514.5,-6.01,-16.31,-15.29,0,*59
1513760652.34,13238,5.94,73516.3,-6.01,-15.57,-14.65,0,*5C
1513760653.54,13239,5.94,73516.0,-6.01,-15.11,-14.37,0,*58
1513760654.74,13240,5.94,73514.0,-6.01,-15.11,-14.15,0,*56
1513760655.97,13241,5.94,73514.3,-6.01,-14.89,-13.97,0,*5A
1513760657.17,13242,5.94,73514.5,-6.01,-15.29,-14.29,0,*50
1513760658.4,13243,5.94,73514.0,-6.01,-15.53,-14.43,0,*50
1513760659.63,13244,5.94,73512.5,-5.99,-15.15,-14.29,0,*5B
1513760660.86,13245,5.94,73512.8,-5.99,-15.25,-14.37,0,*56
1513760662.11,13246,5.94,73512.5,-5.99,-15.11,-14.01,0,*57
1513760663.33,13247,5.94,73514.8,-5.99,-15.11,-14.23,0,*56
1513760664.61,13248,5.94,73512.5,-5.99,-14.97,-14.01,0,*56
1513760665.85,13249,5.94,73514.3,-5.99,-15.01,-14.11,0,*58
1513760667.08,13250,5.94,73512.5,-5.99,-15.71,-14.89,0,*56
1513760668.3,13251,5.94,73512.5,-5.97,-15.21,-14.23,0,*5C
1513760669.5,13252,5.94,73510.0,-5.97,-15.07,-14.11,0,*5A
1513760670.7,13253,5.94,73518.8,-5.95,-15.07,-14.19,0,*51
1513760671.91,13254,5.94,73512.8,-5.97,-15.63,-14.61,0,*59
1513760673.11,13255,5.94,73514.8,-5.97,-15.25,-14.33,0,*5D
1513760674.32,13256,5.94,73514.8,-5.97,-15.25,-14.23,0,*5F
1513760675.56,13257,5.94,73514.3,-5.95,-15.35,-14.37,0,*58
1513760676.82,13258,5.94,73516.5,-5.95,-15.81,-14.79,0,*52
1513760678.02,13259,5.94,73516.5,-5.97,-15.25,-14.37,0,*55
1513760679.23,13260,5.94,73516.5,-5.95,-15.07,-14.19,0,*51
1513760680.44,13261,5.94,73514.8,-5.95,-15.07,-14.19,0,*50
1513760681.66,13262,5.94,73516.5,-5.97,-14.93,-14.11,0,*55
1513760682.9,13263,5.94,73516.3,-5.95,-15.63,-14.75,0,*5A
1513760684.12,13264,5.94,73514.0,-5.95,-14.79,-13.93,0,*58
1513760685.33,13265,5.94,73514.8,-5.95,-14.65,-13.93,0,*54
1513760686.56,13266,5.94,73512.8,-5.95,-14.75,-13.93,0,*56
1513760687.83,13267,5.94,73518.3,-5.95,-14.83,-13.97,0,*5A
1513760689.08,13268,5.94,73518.8,-5.95,-14.75,-13.87,0,*5D
1513760690.29,13269,5.94,73512.3,-5.91,-14.33,-13.55,0,*55
1513760691.52,13270,5.94,73514.3,-5.91,-14.69,-14.01,0,*54
1513760692.79,13271,5.94,73516.0,-5.93,-14.83,-14.19,0,*5A
1513760694.02,13272,5.94,73516.5,-5.93,-15.11,-14.37,0,*5F
1513760695.3,13273,5.94,73516.0,-5.93,-14.79,-14.05,0,*50
1513760696.53,13274,5.94,73514.8,-5.91,-14.93,-14.19,0,*5C
1513760697.75,13275,5.94,73514.0,-5.91,-15.01,-14.33,0,*5F
1513760699.01,13276,5.94,73518.0,-5.91,-14.75,-14.05,0,*5B
1513760700.27,13277,5.94,73518.8,-5.91,-14.55,-13.83,0,*51
1513760701.5,13278,5.94,73516.0,-5.91,-15.01,-14.33,0,*52
1513760702.69,13279,5.94,73518.0,-5.91,-14.69,-13.93,0,*51
1513760703.95,13280,5.94,73516.8,-5.89,-14.75,-14.23,0,*5F
1513760705.2,13281,5.94,73514.5,-5.89,-14.97,-14.37,0,*57
1513760706.46,13282,5.94,73516.3,-5.89,-14.65,-13.97,0,*54
1513760707.72,13283,5.94,73514.8,-5.89,-14.83,-14.15,0,*50
1513760708.95,13284,5.94,73520.5,-5.87,-14.37,-13.79,0,*5B
1513760710.21,13285,5.94,73520.0,-5.87,-14.43,-13.83,0,*5C
1513760711.46,13286,5.94,73516.8,-5.89,-14.75,-14.23,0,*59
1513760712.69,13287,5.94,73516.8,-5.89,-14.65,-14.11,0,*58
1513760713.92,13288,5.94,73520.8,-5.87,-14.55,-14.11,0,*5A
1513760715.15,13289,5.94,73516.5,-5.87,-14.89,-14.43,0,*5D
1513760716.4,13290,5.94,73518.8,-5.85,-14.79,-14.33,0,*5F
1513760717.63,13291,5.94,73518.5,-5.85,-15.07,-14.65,0,*55
1513760718.91,13292,5.94,73518.8,-5.85,-14.93,-14.47,0,*5A
1513760720.14,13293,5.94,73518.0,-5.87,-14.75,-14.37,0,*56
1513760721.37,13294,5.94,73518.0,-5.85,-15.07,-14.61,0,*54
1513760722.62,13295,5.94,73518.0,-5.85,-14.93,-14.37,0,*5A
1513760723.9,13296,5.94,73514.0,-5.85,-15.35,-14.83,0,*5B
1513760725.15,13297,5.94,73512.5,-5.85,-16.13,-15.67,0,*56
1513760726.36,13298,5.94,73514.0,-5.87,-15.63,-15.11,0,*5E
1513760727.63,13299,5.94,73516.5,-5.89,-15.39,-14.89,0,*5E
1513760728.86,13300,5.94,73508.8,-5.87,-15.11,-14.51,0,*5E
1513760730.11,13301,5.94,73504.0,-5.87,-14.97,-14.51,0,*50
1513760731.35,13302,6.0,73516.5,-5.87,-15.53,-15.01,0,*5E
1513760732.57,13303,5.94,73516.8,-5.87,-15.75,-15.29,0,*51
1513760733.8,13304,5.94,73512.8,-5.89,-16.59,-15.99,0,*5E
1513760735.07,13305,5.94,73510.5,-5.89,-15.85,-15.25,0,*5A
1513760736.31,13306,5.94,73510.8,-5.89,-15.53,-15.11,0,*55
1513760737.59,13307,5.94,73510.8,-5.89,-15.43,-14.97,0,*5A
1513760738.82,13308,5.94,73516.5,-5.91,-15.21,-14.69,0,*59
1513760740.02,13309,5.94,73514.8,-5.91,-15.67,-15.07,0,*53
1513760741.29,13310,5.94,73516.3,-5.89,-15.43,-14.89,0,*53
1513760742.57,13311,5.94,73512.3,-5.89,-15.43,-14.83,0,*58
1513760743.83,13312,5.94,73512.5,-5.89,-15.71,-15.01,0,*51
1513760745.07,13313,5.94,73514.3,-5.89,-15.25,-14.65,0,*52
1513760746.34,13314,5.94,73518.5,-5.89,-15.01,-14.43,0,*57
1513760747.59,13315,5.94,73516.3,-5.89,-15.29,-14.75,0,*59
1513760748.81,13316,5.94,73514.0,-5.87,-15.25,-14.65,0,*59
1513760750.04,13317,5.94,73516.8,-5.87,-15.15,-14.51,0,*5C
1513760751.28,13318,5.94,73510.3,-5.89,-15.29,-14.65,0,*55
1513760752.56,13319,5.94,73510.3,-5.89,-15.43,-14.75,0,*59
1513760753.78,13320,5.94,73512.3,-5.87,-15.53,-14.89,0,*5F
1513760755.02,13321,5.94,73512.0,-5.89,-15.15,-14.65,0,*50
1513760756.27,13322,5.94,73516.8,-5.89,-15.29,-14.75,0,*5D
1513760757.48,13323,5.94,73510.3,-5.87,-15.71,-15.15,0,*58
1513760758.69,13324,5.94,73514.5,-5.87,-15.11,-14.65,0,*5F
1513760759.89,13325,5.94,73514.3,-5.87,-15.11,-14.69,0,*52
1513760761.13,13326,5.94,73514.3,-5.87,-15.53,-15.01,0,*58
1513760762.39,13327,6.0,73518.5,-5.87,-15.43,-14.83,0,*53
1513760763.63,13328,5.94,73512.0,-5.87,-15.43,-14.89,0,*56
1513760764.86,13329,5.94,73512.0,-5.83,-15.71,-15.21,0,*51
1513760766.11,13330,5.94,73516.5,-5.85,-15.57,-15.07,0,*5F
1513760767.37,13331,5.94,73512.5,-5.85,-15.53,-14.97,0,*52
1513760768.65,13332,5.94,73514.5,-5.85,-15.39,-14.93,0,*59
1513760769.93,13333,5.94,73514.0,-5.85,-15.57,-14.97,0,*54
1513760771.17,13334,5.94,73510.3,-5.83,-15.53,-14.97,0,*51
1513760772.45,13335,5.94,73512.8,-5.85,-15.85,-15.35,0,*54
1513760773.71,13336,5.94,73514.8,-5.83,-15.85,-15.35,0,*51
1513760774.98,13337,5.94,73514.8,-5.85,-16.13,-15.49,0,*51
1513760776.26,13338,5.94,73512.3,-5.85,-16.09,-15.35,0,*5E
1513760777.49,13339,5.94,73512.3,-5.83,-15.81,-15.11,0,*5C
1513760778.74,13340,5.94,73512.8,-5.85,-15.99,-15.35,0,*5B
1513760780.0,13341,5.94,73512.0,-5.85,-15.81,-15.11,0,*55
1513760781.25,13342,5.94,73512.3,-5.85,-15.81,-15.07,0,*51
1513760782.53,13343,5.94,73512.8,-5.85,-16.23,-15.57,0,*5E
1513760783.74,13344,5.94,73512.3,-5.83,-16.59,-15.95,0,*5C
1513760784.98,13345,5.94,73514.8,-5.85,-17.31,-16.75,0,*59
1513760786.21,13346,5.94,73512.5,-5.85,-16.55,-15.95,0,*54
1513760787.48,13347,5.94,73512.5,-5.85,-16.13,-15.49,0,*56
1513760788.71,13348,5.94,73514.0,-5.85,-15.99,-15.11,0,*55
1513760789.99,13349,5.94,73512.5,-5.85,-15.81,-15.21,0,*5E
1513760791.26,13350,5.94,73516.8,-5.85,-15.57,-14.93,0,*55
1513760792.5,13351,5.94,73514.0,-5.85,-15.95,-15.25,0,*56
1513760793.76,13352,5.94,73514.5,-5.85,-15.81,-15.07,0,*50
1513760794.99,13353,5.94,73514.3,-5.83,-15.67,-14.97,0,*57
1513760796.27,13354,5.94,73514.3,-5.85,-15.57,-14.93,0,*51
1513760797.51,13355,5.94,73512.0,-5.83,-15.85,-15.25,0,*55
1513760798.76,13356,5.94,73510.8,-5.83,-15.81,-15.21,0,*56
1513760799.99,13357,5.94,73510.5,-5.83,-15.99,-15.35,0,*5B
1513760801.22,13358,5.94,73514.5,-5.85,-15.71,-15.07,0,*55
1513760802.47,13359,5.94,73514.0,-5.85,-15.49,-14.93,0,*53
1513760803.68,13360,5.94,73506.8,-5.83,-15.71,-15.07,0,*58
1513760804.92,13361,5.94,73508.8,-5.83,-15.81,-15.25,0,*56
1513760806.13,13362,5.94,73510.8,-5.83,-15.95,-15.25,0,*50
1513760807.34,13363,5.94,73512.0,-5.83,-15.71,-15.07,0,*5B
1513760808.55,13364,5.94,73508.5,-5.83,-15.71,-15.25,0,*5C
1513760809.76,13365,6.0,73516.3,-5.83,-15.71,-15.11,0,*5A
1513760810.99,13366,5.94,73512.5,-5.83,-17.03,-16.41,0,*58
1513760812.25,13367,5.94,73518.3,-5.85,-16.37,-15.81,0,*56
1513760813.51,13368,5.94,73516.8,-5.85,-15.49,-14.93,0,*51
1513760814.75,13369,5.94,73512.5,-5.85,-15.71,-15.25,0,*57
1513760815.98,13370,5.94,73510.8,-5.83,-15.57,-15.07,0,*5D
1513760817.19,13371,5.94,73512.0,-5.83,-15.53,-15.07,0,*58
1513760818.45,13372,5.94,73514.0,-5.85,-15.81,-15.49,0,*58
1513760819.72,13373,5.94,73514.8,-5.85,-15.81,-15.21,0,*57
1513760820.95,13374,5.94,73514.5,-5.83,-16.23,-15.67,0,*5F
1513760822.2,13375,5.94,73514.3,-5.79,-15.89,-15.29,0,*52
1513760823.46,13376,5.94,73516.3,-5.83,-16.23,-15.81,0,*55
1513760824.69,13377,5.94,73514.3,-5.85,-16.89,-16.41,0,*5D
1513760825.96,13378,5.94,73514.5,-5.85,-16.09,-15.53,0,*5A
1513760827.19,13379,5.94,73512.0,-5.83,-16.37,-15.81,0,*5F
1513760828.45,13380,5.94,73512.5,-5.85,-16.59,-16.23,0,*5C
1513760829.67,13381,5.94,73516.8,-5.85,-17.31,-16.89,0,*52
1513760830.93,13382,5.94,73512.5,-5.85,-16.51,-15.99,0,*54
1513760832.21,13383,5.94,73512.8,-5.85,-16.69,-16.27,0,*58
1513760833.44,13384,5.94,73510.0,-5.85,-16.89,-16.41,0,*51
1513760834.67,13385,5.94,73514.3,-5.85,-16.83,-16.37,0,*5B
1513760835.92,13386,5.94,73518.0,-5.83,-17.63,-17.11,0,*54
1513760837.18,13387,5.94,73516.0,-5.85,-17.11,-16.75,0,*55
1513760838.45,13388,5.94,73514.0,-5.85,-17.41,-16.75,0,*5F
1513760839.71,13389,5.94,73512.3,-5.85,-17.41,-16.83,0,*57
1513760840.99,13390,5.94,73514.0,-5.85,-17.59,-17.25,0,*5B
1513760842.27,13391,5.94,73512.8,-5.85,-17.25,-16.69,0,*58
1513760843.54,13392,5.94,73514.3,-5.85,-17.11,-16.51,0,*57
1513760844.78,13393,6.0,73518.3,-5.87,-17.45,-16.93,0,*5B
1513760846.07,13394,5.94,73512.8,-5.89,-17.97,-17.45,0,*57
1513760847.3,13395,5.94,73510.5,-5.87,-17.69,-17.21,0,*5B
1513760848.56,13396,6.0,73518.5,-5.87,-17.55,-17.03,0,*57
1513760849.79,13397,6.0,73512.8,-5.87,-18.25,-17.63,0,*58
1513760851.01,13398,6.0,73518.8,-5.87,-18.73,-18.07,0,*59
1513760852.27,13399,6.0,73516.5,-5.87,-17.97,-17.21,0,*56
1513760853.53,13400,5.94,73512.8,-5.85,-18.07,-17.45,0,*57
1513760854.76,13401,5.94,73514.0,-5.85,-18.49,-17.73,0,*59
1513760855.99,13402,5.94,73516.3,-5.87,-19.03,-18.35,0,*5A
1513760857.25,13403,6.0,73514.0,-5.85,-18.45,-17.63,0,*56
1513760858.5,13404,5.94,73512.8,-5.89,-18.55,-17.69,0,*56
1513760859.78,13405,6.0,73514.5,-5.89,-19.41,-18.55,0,*53
1513760861.04,13406,6.0,73516.0,-5.89,-18.89,-17.83,0,*51
1513760862.29,13407,5.94,73518.3,-5.89,-19.13,-18.11,0,*56
1513760863.56,13408,6.0,73518.5,-5.89,-18.89,-17.93,0,*5E
1513760864.78,13409,6.0,73516.8,-5.87,-18.73,-17.83,0,*55
1513760866.04,13410,6.0,73518.5,-5.87,-18.59,-17.79,0,*50
1513760867.27,13411,6.0,73516.8,-5.87,-18.59,-17.69,0,*50
1513760868.5,13412,5.94,73512.0,-5.87,-18.83,-17.93,0,*51
1513760869.75,13413,5.94,73514.0,-5.87,-19.41,-18.59,0,*56
1513760870.96,13414,6.0,73516.8,-5.87,-19.51,-18.69,0,*53
1513760872.21,13415,6.0,73518.5,-5.89,-19.17,-18.11,0,*51
1513760873.46,13416,6.0,73518.3,-5.89,-19.41,-18.49,0,*5C
1513760874.7,13417,6.0,73518.0,-5.89,-19.03,-18.11,0,*56
1513760875.93,13418,6.0,73516.8,-5.89,-19.03,-18.07,0,*5E
1513760877.15,13419,5.94,73512.5,-5.87,-19.51,-18.49,0,*5C
1513760878.41,13420,6.0,73516.3,-5.89,-18.99,-17.97,0,*51
1513760879.64,13421,6.0,73516.5,-5.89,-18.41,-17.49,0,*56
1513760880.9,13422,6.0,73514.5,-5.89,-18.21,-17.21,0,*5D
1513760882.18,13423,5.94,73516.3,-5.89,-18.55,-17.63,0,*59
1513760883.44,13424,5.94,73512.0,-5.87,-18.35,-17.55,0,*53
1513760884.71,13425,5.94,73512.5,-5.89,-19.31,-18.49,0,*5B
1513760885.97,13426,5.94,73510.3,-5.89,-18.69,-17.63,0,*53
1513760887.25,13427,6.0,73514.5,-5.89,-18.55,-17.55,0,*58
1513760888.51,13428,6.0,73514.8,-5.89,-18.73,-17.79,0,*5D
1513760889.76,13429,6.0,73514.3,-5.89,-18.69,-17.63,0,*5C
1513760890.99,13430,6.0,73512.0,-5.89,-18.25,-17.31,0,*5B
1513760892.25,13431,6.0,73514.8,-5.85,-18.49,-17.63,0,*5B
1513760893.49,13432,5.94,73514.0,-5.89,-18.69,-17.69,0,*5C
1513760894.74,13433,6.0,73514.0,-5.89,-18.21,-17.17,0,*58
1513760895.98,13434,6.0,73512.0,-5.89,-18.73,-17.83,0,*55
1513760897.24,13435,6.0,73514.8,-5.89,-18.69,-17.79,0,*5A
1513760898.48,13436,6.0,73518.0,-5.87,-18.41,-17.55,0,*53
1513760899.72,13437,6.0,73512.0,-5.87,-18.69,-17.79,0,*56
1513760900.97,13438,6.0,73512.8,-5.89,-18.11,-17.45,0,*57
1513760902.18,13439,6.0,73510.5,-5.87,-18.49,-17.69,0,*5B
1513760903.44,13440,6.0,73514.0,-5.87,-18.59,-17.93,0,*51
1513760904.7,13441,6.0,73510.3,-5.89,-18.55,-17.69,0,*57
1513760905.93,13442,5.94,73508.0,-5.87,-18.55,-17.83,0,*5E